Home   Weather   Greencastle   Past weeks
Flag for USA

Past Weather in Greencastle, Indiana, USA — Yesterday and Last 2 Weeks

Now
39 °F

Light rain. Fog.


Feels Like: 33 °F
Forecast: 41 / 35 °F
Wind: 9 mph from Southeast

Location: Indianapolis International Airport

Current Time: Jan 24, 2020 at 9:15:10 am

Latest Report: Jan 24, 2020 at 7:54 am


Visibility: 2 mi

Pressure: 29.86 "Hg

Humidity: 100%

Dew Point: 39 °F

Location of GreencastleLocation

Past Weather in Greencastle — Graph

°F

Greencastle Temperature Yesterday

Maximum temperature yesterday: 45 °F (at 2:54 pm)
Minimum temperature yesterday: 32 °F (at 12:54 am)
Average temperature yesterday: 38 °F

High & Low Weather Summary for the Past Weeks

 TemperatureHumidityPressure
High63 °F (Jan 11, 6:54 am)100% (Jan 10, 3:37 pm)30.78 "Hg (Jan 10, 3:37 pm)
Low9 °F (Jan 19, 8:54 am)30% (Jan 9, 3:54 pm)29.63 "Hg (Jan 11, 6:54 am)
Average35 °F82%30.22 "Hg
* Reported Jan 9 7:54 am — Jan 24 7:54 am, Greencastle. Weather by CustomWeather, © 2020

Note: Actual official high and low records may vary slightly from our data, if they occured in-between our weather recording intervals... More about our weather records

Greencastle Weather History for the Previous 24 Hours

Scroll right to see more
 ConditionsComfort  
Time TempWeatherWind HumidityBarometerVisibility
7:54 am
Fri, Jan 24
39 °FLight rain. Fog.9 mph100%29.86 "Hg2 mi
7:04 am39 °FLight rain. Fog.9 mph100%29.85 "Hg2 mi
6:54 am39 °FLight rain. Fog.10 mph100%29.86 "Hg1 mi
5:54 am39 °FLight rain. Fog.10 mph100%29.86 "Hg1 mi
4:54 am39 °FFog.9 mph100%29.87 "Hg1 mi
4:17 am39 °FFog.10 mph96%29.87 "Hg1 mi
3:54 am39 °FFog.10 mph96%29.88 "Hg5 mi
2:54 am38 °FFog.12 mph97%29.89 "Hg5 mi
2:26 am38 °FLight rain. Fog.13 mph97%29.89 "Hg4 mi
1:54 am38 °FLow clouds.14 mph97%29.91 "Hg8 mi
12:54 am38 °FMostly cloudy.13 mph97%29.92 "Hg8 mi
11:54 pm
Thu, Jan 23
37 °FFog.13 mph96%29.96 "Hg6 mi
11:14 pm37 °FFog.13 mph96%29.95 "Hg6 mi
10:54 pm37 °FDrizzle. Mostly cloudy.12 mph96%29.97 "Hg7 mi
10:22 pm37 °FLow clouds.13 mph93%29.97 "Hg10 mi
9:54 pm37 °FLight rain. Mostly cloudy.13 mph86%30.00 "Hg10 mi
8:54 pm39 °FLight rain. Mostly cloudy.12 mph79%30.02 "Hg8 mi
7:54 pm40 °FLight rain. Overcast.10 mph70%30.03 "Hg10 mi
6:54 pm40 °FLight rain. Overcast.8 mph70%30.05 "Hg10 mi
5:54 pm42 °FMostly cloudy.9 mph45%30.05 "Hg10 mi
4:54 pm43 °FMostly cloudy.10 mph43%30.06 "Hg10 mi
3:54 pm44 °FMostly cloudy.13 mph43%30.07 "Hg10 mi
2:54 pm45 °FOvercast.5 mph40%30.06 "Hg10 mi
1:54 pm44 °FMostly cloudy.9 mph41%30.09 "Hg10 mi
12:54 pm43 °FOvercast.10 mph43%30.11 "Hg10 mi
11:54 am40 °FBroken clouds.10 mph47%30.14 "Hg10 mi
10:54 am39 °FMostly cloudy.9 mph48%30.16 "Hg10 mi
9:54 am36 °FMostly cloudy.9 mph54%30.15 "Hg10 mi
Weather by CustomWeather, © 2020

See weather overview

Advertising